Index of /20260418/WXO-DD/model_rdps/10km/12/076
Name Last modified Size Description
Parent Directory -
20260418T12Z_MSC_RDPS_AbsoluteVorticity_IsbL-0250_RLatLon0.09_PT076H.grib2 2026-04-18 15:01 617K
20260418T12Z_MSC_RDPS_AbsoluteVorticity_IsbL-0500_RLatLon0.09_PT076H.grib2 2026-04-18 15:01 567K
20260418T12Z_MSC_RDPS_AbsoluteVorticity_IsbL-0700_RLatLon0.09_PT076H.grib2 2026-04-18 15:01 621K
20260418T12Z_MSC_RDPS_AbsoluteVorticity_IsbL-0850_RLatLon0.09_PT076H.grib2 2026-04-18 15:01 793K
20260418T12Z_MSC_RDPS_AirTemp_AGL-120m_RLatLon0.09_PT076H.grib2 2026-04-18 15:01 390K
20260418T12Z_MSC_RDPS_AirTemp_AGL-2m_RLatLon0.09_PT076H.grib2 2026-04-18 15:01 651K
20260418T12Z_MSC_RDPS_AirTemp_AGL-40m_RLatLon0.09_PT076H.grib2 2026-04-18 15:01 403K
20260418T12Z_MSC_RDPS_AirTemp_AGL-80m_RLatLon0.09_PT076H.grib2 2026-04-18 15:01 397K
20260418T12Z_MSC_RDPS_AirTemp_IsbL-0001_RLatLon0.09_PT076H.grib2 2026-04-18 15:01 314K
20260418T12Z_MSC_RDPS_AirTemp_IsbL-0005_RLatLon0.09_PT076H.grib2 2026-04-18 15:01 336K
20260418T12Z_MSC_RDPS_AirTemp_IsbL-0010_RLatLon0.09_PT076H.grib2 2026-04-18 15:01 309K
20260418T12Z_MSC_RDPS_AirTemp_IsbL-0020_RLatLon0.09_PT076H.grib2 2026-04-18 15:01 331K
20260418T12Z_MSC_RDPS_AirTemp_IsbL-0030_RLatLon0.09_PT076H.grib2 2026-04-18 15:01 351K
20260418T12Z_MSC_RDPS_AirTemp_IsbL-0050_RLatLon0.09_PT076H.grib2 2026-04-18 15:01 332K
20260418T12Z_MSC_RDPS_AirTemp_IsbL-0100_RLatLon0.09_PT076H.grib2 2026-04-18 15:01 436K
20260418T12Z_MSC_RDPS_AirTemp_IsbL-0150_RLatLon0.09_PT076H.grib2 2026-04-18 15:01 428K
20260418T12Z_MSC_RDPS_AirTemp_IsbL-0175_RLatLon0.09_PT076H.grib2 2026-04-18 15:01 421K
20260418T12Z_MSC_RDPS_AirTemp_IsbL-0200_RLatLon0.09_PT076H.grib2 2026-04-18 15:01 424K
20260418T12Z_MSC_RDPS_AirTemp_IsbL-0225_RLatLon0.09_PT076H.grib2 2026-04-18 15:01 419K
20260418T12Z_MSC_RDPS_AirTemp_IsbL-0250_RLatLon0.09_PT076H.grib2 2026-04-18 15:01 418K
20260418T12Z_MSC_RDPS_AirTemp_IsbL-0275_RLatLon0.09_PT076H.grib2 2026-04-18 15:01 397K
20260418T12Z_MSC_RDPS_AirTemp_IsbL-0300_RLatLon0.09_PT076H.grib2 2026-04-18 15:01 426K
20260418T12Z_MSC_RDPS_AirTemp_IsbL-0350_RLatLon0.09_PT076H.grib2 2026-04-18 15:01 418K
20260418T12Z_MSC_RDPS_AirTemp_IsbL-0400_RLatLon0.09_PT076H.grib2 2026-04-18 15:01 423K
20260418T12Z_MSC_RDPS_AirTemp_IsbL-0450_RLatLon0.09_PT076H.grib2 2026-04-18 15:01 397K
20260418T12Z_MSC_RDPS_AirTemp_IsbL-0500_RLatLon0.09_PT076H.grib2 2026-04-18 15:01 411K
20260418T12Z_MSC_RDPS_AirTemp_IsbL-0550_RLatLon0.09_PT076H.grib2 2026-04-18 15:01 430K
20260418T12Z_MSC_RDPS_AirTemp_IsbL-0600_RLatLon0.09_PT076H.grib2 2026-04-18 15:01 446K
20260418T12Z_MSC_RDPS_AirTemp_IsbL-0650_RLatLon0.09_PT076H.grib2 2026-04-18 15:01 462K
20260418T12Z_MSC_RDPS_AirTemp_IsbL-0700_RLatLon0.09_PT076H.grib2 2026-04-18 15:01 486K
20260418T12Z_MSC_RDPS_AirTemp_IsbL-0750_RLatLon0.09_PT076H.grib2 2026-04-18 15:01 529K
20260418T12Z_MSC_RDPS_AirTemp_IsbL-0800_RLatLon0.09_PT076H.grib2 2026-04-18 15:01 589K
20260418T12Z_MSC_RDPS_AirTemp_IsbL-0850_RLatLon0.09_PT076H.grib2 2026-04-18 15:01 518K
20260418T12Z_MSC_RDPS_AirTemp_IsbL-0875_RLatLon0.09_PT076H.grib2 2026-04-18 15:01 527K
20260418T12Z_MSC_RDPS_AirTemp_IsbL-0900_RLatLon0.09_PT076H.grib2 2026-04-18 15:01 531K
20260418T12Z_MSC_RDPS_AirTemp_IsbL-0925_RLatLon0.09_PT076H.grib2 2026-04-18 15:01 530K
20260418T12Z_MSC_RDPS_AirTemp_IsbL-0950_RLatLon0.09_PT076H.grib2 2026-04-18 15:01 534K
20260418T12Z_MSC_RDPS_AirTemp_IsbL-0970_RLatLon0.09_PT076H.grib2 2026-04-18 15:01 536K
20260418T12Z_MSC_RDPS_AirTemp_IsbL-0985_RLatLon0.09_PT076H.grib2 2026-04-18 15:01 530K
20260418T12Z_MSC_RDPS_AirTemp_IsbL-1000_RLatLon0.09_PT076H.grib2 2026-04-18 15:01 515K
20260418T12Z_MSC_RDPS_AirTemp_IsbL-1015_RLatLon0.09_PT076H.grib2 2026-04-18 15:01 522K
20260418T12Z_MSC_RDPS_Albedo_Sfc_RLatLon0.09_PT076H.grib2 2026-04-18 15:01 164K
20260418T12Z_MSC_RDPS_CAPE_Sfc_RLatLon0.09_PT076H.grib2 2026-04-18 15:01 1.7M
20260418T12Z_MSC_RDPS_CIN_Sfc_RLatLon0.09_PT076H.grib2 2026-04-18 15:01 1.1M
20260418T12Z_MSC_RDPS_CloudWater_EAtm_RLatLon0.09_PT076H.grib2 2026-04-18 15:01 215K
20260418T12Z_MSC_RDPS_ConvectivePrecip-Accum_Sfc_RLatLon0.09_PT076H.grib2 2026-04-18 15:01 1.3M
20260418T12Z_MSC_RDPS_DewPointDepression_AGL-2m_RLatLon0.09_PT076H.grib2 2026-04-18 15:01 419K
20260418T12Z_MSC_RDPS_DewPointDepression_IsbL-0001_RLatLon0.09_PT076H.grib2 2026-04-18 15:01 193
20260418T12Z_MSC_RDPS_DewPointDepression_IsbL-0005_RLatLon0.09_PT076H.grib2 2026-04-18 15:01 193
20260418T12Z_MSC_RDPS_DewPointDepression_IsbL-0010_RLatLon0.09_PT076H.grib2 2026-04-18 15:01 193
20260418T12Z_MSC_RDPS_DewPointDepression_IsbL-0020_RLatLon0.09_PT076H.grib2 2026-04-18 15:01 193
20260418T12Z_MSC_RDPS_DewPointDepression_IsbL-0030_RLatLon0.09_PT076H.grib2 2026-04-18 15:01 193
20260418T12Z_MSC_RDPS_DewPointDepression_IsbL-0050_RLatLon0.09_PT076H.grib2 2026-04-18 15:01 96K
20260418T12Z_MSC_RDPS_DewPointDepression_IsbL-0100_RLatLon0.09_PT076H.grib2 2026-04-18 15:01 126K
20260418T12Z_MSC_RDPS_DewPointDepression_IsbL-0150_RLatLon0.09_PT076H.grib2 2026-04-18 15:01 155K
20260418T12Z_MSC_RDPS_DewPointDepression_IsbL-0175_RLatLon0.09_PT076H.grib2 2026-04-18 15:01 188K
20260418T12Z_MSC_RDPS_DewPointDepression_IsbL-0200_RLatLon0.09_PT076H.grib2 2026-04-18 15:01 225K
20260418T12Z_MSC_RDPS_DewPointDepression_IsbL-0225_RLatLon0.09_PT076H.grib2 2026-04-18 15:01 253K
20260418T12Z_MSC_RDPS_DewPointDepression_IsbL-0250_RLatLon0.09_PT076H.grib2 2026-04-18 15:01 289K
20260418T12Z_MSC_RDPS_DewPointDepression_IsbL-0275_RLatLon0.09_PT076H.grib2 2026-04-18 15:01 299K
20260418T12Z_MSC_RDPS_DewPointDepression_IsbL-0300_RLatLon0.09_PT076H.grib2 2026-04-18 15:01 320K
20260418T12Z_MSC_RDPS_DewPointDepression_IsbL-0350_RLatLon0.09_PT076H.grib2 2026-04-18 15:01 328K
20260418T12Z_MSC_RDPS_DewPointDepression_IsbL-0400_RLatLon0.09_PT076H.grib2 2026-04-18 15:01 341K
20260418T12Z_MSC_RDPS_DewPointDepression_IsbL-0450_RLatLon0.09_PT076H.grib2 2026-04-18 15:01 353K
20260418T12Z_MSC_RDPS_DewPointDepression_IsbL-0500_RLatLon0.09_PT076H.grib2 2026-04-18 15:01 365K
20260418T12Z_MSC_RDPS_DewPointDepression_IsbL-0550_RLatLon0.09_PT076H.grib2 2026-04-18 15:01 385K
20260418T12Z_MSC_RDPS_DewPointDepression_IsbL-0600_RLatLon0.09_PT076H.grib2 2026-04-18 15:01 394K
20260418T12Z_MSC_RDPS_DewPointDepression_IsbL-0650_RLatLon0.09_PT076H.grib2 2026-04-18 15:01 391K
20260418T12Z_MSC_RDPS_DewPointDepression_IsbL-0700_RLatLon0.09_PT076H.grib2 2026-04-18 15:01 395K
20260418T12Z_MSC_RDPS_DewPointDepression_IsbL-0750_RLatLon0.09_PT076H.grib2 2026-04-18 15:01 414K
20260418T12Z_MSC_RDPS_DewPointDepression_IsbL-0800_RLatLon0.09_PT076H.grib2 2026-04-18 15:01 452K
20260418T12Z_MSC_RDPS_DewPointDepression_IsbL-0850_RLatLon0.09_PT076H.grib2 2026-04-18 15:01 475K
20260418T12Z_MSC_RDPS_DewPointDepression_IsbL-0875_RLatLon0.09_PT076H.grib2 2026-04-18 15:01 463K
20260418T12Z_MSC_RDPS_DewPointDepression_IsbL-0900_RLatLon0.09_PT076H.grib2 2026-04-18 15:01 454K
20260418T12Z_MSC_RDPS_DewPointDepression_IsbL-0925_RLatLon0.09_PT076H.grib2 2026-04-18 15:01 447K
20260418T12Z_MSC_RDPS_DewPointDepression_IsbL-0950_RLatLon0.09_PT076H.grib2 2026-04-18 15:01 445K
20260418T12Z_MSC_RDPS_DewPointDepression_IsbL-0970_RLatLon0.09_PT076H.grib2 2026-04-18 15:01 445K
20260418T12Z_MSC_RDPS_DewPointDepression_IsbL-0985_RLatLon0.09_PT076H.grib2 2026-04-18 15:01 443K
20260418T12Z_MSC_RDPS_DewPointDepression_IsbL-1000_RLatLon0.09_PT076H.grib2 2026-04-18 15:01 440K
20260418T12Z_MSC_RDPS_DewPointDepression_IsbL-1015_RLatLon0.09_PT076H.grib2 2026-04-18 15:01 433K
20260418T12Z_MSC_RDPS_DewPoint_AGL-2m_RLatLon0.09_PT076H.grib2 2026-04-18 15:01 410K
20260418T12Z_MSC_RDPS_DownwardLongwaveRadiationFlux-Accum_Sfc_RLatLon0.09_PT076H.grib2 2026-04-18 15:01 422K
20260418T12Z_MSC_RDPS_DownwardShortwaveRadiationFlux-Accum_NTAtm_RLatLon0.09_PT076H.grib2 2026-04-18 15:01 110K
20260418T12Z_MSC_RDPS_DownwardShortwaveRadiationFlux-Accum_Sfc_RLatLon0.09_PT076H.grib2 2026-04-18 15:01 614K
20260418T12Z_MSC_RDPS_FreezingRain-Accum1h_Sfc_RLatLon0.09_PT076H.grib2 2026-04-18 15:01 12K
20260418T12Z_MSC_RDPS_FreezingRain-Accum_Sfc_RLatLon0.09_PT076H.grib2 2026-04-18 15:01 149K
20260418T12Z_MSC_RDPS_GeopotentialHeight_IsbL-0001_RLatLon0.09_PT076H.grib2 2026-04-18 15:01 275K
20260418T12Z_MSC_RDPS_GeopotentialHeight_IsbL-0005_RLatLon0.09_PT076H.grib2 2026-04-18 15:01 240K
20260418T12Z_MSC_RDPS_GeopotentialHeight_IsbL-0010_RLatLon0.09_PT076H.grib2 2026-04-18 15:01 315K
20260418T12Z_MSC_RDPS_GeopotentialHeight_IsbL-0020_RLatLon0.09_PT076H.grib2 2026-04-18 15:01 313K
20260418T12Z_MSC_RDPS_GeopotentialHeight_IsbL-0030_RLatLon0.09_PT076H.grib2 2026-04-18 15:01 315K
20260418T12Z_MSC_RDPS_GeopotentialHeight_IsbL-0050_RLatLon0.09_PT076H.grib2 2026-04-18 15:01 348K
20260418T12Z_MSC_RDPS_GeopotentialHeight_IsbL-0100_RLatLon0.09_PT076H.grib2 2026-04-18 15:01 291K
20260418T12Z_MSC_RDPS_GeopotentialHeight_IsbL-0150_RLatLon0.09_PT076H.grib2 2026-04-18 15:01 232K
20260418T12Z_MSC_RDPS_GeopotentialHeight_IsbL-0175_RLatLon0.09_PT076H.grib2 2026-04-18 15:01 266K
20260418T12Z_MSC_RDPS_GeopotentialHeight_IsbL-0200_RLatLon0.09_PT076H.grib2 2026-04-18 15:01 267K
20260418T12Z_MSC_RDPS_GeopotentialHeight_IsbL-0225_RLatLon0.09_PT076H.grib2 2026-04-18 15:01 268K
20260418T12Z_MSC_RDPS_GeopotentialHeight_IsbL-0250_RLatLon0.09_PT076H.grib2 2026-04-18 15:01 268K
20260418T12Z_MSC_RDPS_GeopotentialHeight_IsbL-0275_RLatLon0.09_PT076H.grib2 2026-04-18 15:01 267K
20260418T12Z_MSC_RDPS_GeopotentialHeight_IsbL-0300_RLatLon0.09_PT076H.grib2 2026-04-18 15:01 267K
20260418T12Z_MSC_RDPS_GeopotentialHeight_IsbL-0350_RLatLon0.09_PT076H.grib2 2026-04-18 15:01 233K
20260418T12Z_MSC_RDPS_GeopotentialHeight_IsbL-0400_RLatLon0.09_PT076H.grib2 2026-04-18 15:01 230K
20260418T12Z_MSC_RDPS_GeopotentialHeight_IsbL-0450_RLatLon0.09_PT076H.grib2 2026-04-18 15:01 301K
20260418T12Z_MSC_RDPS_GeopotentialHeight_IsbL-0500_RLatLon0.09_PT076H.grib2 2026-04-18 15:01 297K
20260418T12Z_MSC_RDPS_GeopotentialHeight_IsbL-0550_RLatLon0.09_PT076H.grib2 2026-04-18 15:01 293K
20260418T12Z_MSC_RDPS_GeopotentialHeight_IsbL-0600_RLatLon0.09_PT076H.grib2 2026-04-18 15:01 289K
20260418T12Z_MSC_RDPS_GeopotentialHeight_IsbL-0650_RLatLon0.09_PT076H.grib2 2026-04-18 15:01 258K
20260418T12Z_MSC_RDPS_GeopotentialHeight_IsbL-0700_RLatLon0.09_PT076H.grib2 2026-04-18 15:01 256K
20260418T12Z_MSC_RDPS_GeopotentialHeight_IsbL-0750_RLatLon0.09_PT076H.grib2 2026-04-18 15:01 342K
20260418T12Z_MSC_RDPS_GeopotentialHeight_IsbL-0800_RLatLon0.09_PT076H.grib2 2026-04-18 15:01 350K
20260418T12Z_MSC_RDPS_GeopotentialHeight_IsbL-0850_RLatLon0.09_PT076H.grib2 2026-04-18 15:01 361K
20260418T12Z_MSC_RDPS_GeopotentialHeight_IsbL-0875_RLatLon0.09_PT076H.grib2 2026-04-18 15:01 362K
20260418T12Z_MSC_RDPS_GeopotentialHeight_IsbL-0900_RLatLon0.09_PT076H.grib2 2026-04-18 15:01 367K
20260418T12Z_MSC_RDPS_GeopotentialHeight_IsbL-0925_RLatLon0.09_PT076H.grib2 2026-04-18 15:01 368K
20260418T12Z_MSC_RDPS_GeopotentialHeight_IsbL-0950_RLatLon0.09_PT076H.grib2 2026-04-18 15:01 374K
20260418T12Z_MSC_RDPS_GeopotentialHeight_IsbL-0970_RLatLon0.09_PT076H.grib2 2026-04-18 15:01 380K
20260418T12Z_MSC_RDPS_GeopotentialHeight_IsbL-0985_RLatLon0.09_PT076H.grib2 2026-04-18 15:01 392K
20260418T12Z_MSC_RDPS_GeopotentialHeight_IsbL-1000_RLatLon0.09_PT076H.grib2 2026-04-18 15:01 406K
20260418T12Z_MSC_RDPS_GeopotentialHeight_IsbL-1015_RLatLon0.09_PT076H.grib2 2026-04-18 15:01 422K
20260418T12Z_MSC_RDPS_Humidex_Sfc_RLatLon0.09_PT076H.grib2 2026-04-18 15:01 2.4M
20260418T12Z_MSC_RDPS_IcePellets-Accum1h_Sfc_RLatLon0.09_PT076H.grib2 2026-04-18 15:01 4.4K
20260418T12Z_MSC_RDPS_IcePellets-Accum_Sfc_RLatLon0.09_PT076H.grib2 2026-04-18 15:01 55K
20260418T12Z_MSC_RDPS_KIndex_Sfc_RLatLon0.09_PT076H.grib2 2026-04-18 15:01 2.5M
20260418T12Z_MSC_RDPS_LatentHeatNetFlux_Sfc_RLatLon0.09_PT076H.grib2 2026-04-18 15:01 299K
20260418T12Z_MSC_RDPS_LiftedIndex-MU-VT_IsbL-0500_RLatLon0.09_PT076H.grib2 2026-04-18 15:01 2.4M
20260418T12Z_MSC_RDPS_NetLongwaveRadiationFlux-Accum_Sfc_RLatLon0.09_PT076H.grib2 2026-04-18 15:01 471K
20260418T12Z_MSC_RDPS_NetShortwaveRadiationFlux-Accum_Sfc_RLatLon0.09_PT076H.grib2 2026-04-18 15:01 630K
20260418T12Z_MSC_RDPS_PlanetaryBoundaryLayerHeight_Sfc_RLatLon0.09_PT076H.grib2 2026-04-18 15:01 1.2M
20260418T12Z_MSC_RDPS_Precip-Accum1h_Sfc_RLatLon0.09_PT076H.grib2 2026-04-18 15:01 1.2M
20260418T12Z_MSC_RDPS_Precip-Accum_Sfc_RLatLon0.09_PT076H.grib2 2026-04-18 15:01 2.1M
20260418T12Z_MSC_RDPS_PrecipRate_Sfc_RLatLon0.09_PT076H.grib2 2026-04-18 15:01 181K
20260418T12Z_MSC_RDPS_PrecipType-Instant_Sfc_RLatLon0.09_PT076H.grib2 2026-04-18 15:01 581K
20260418T12Z_MSC_RDPS_Pressure-Trend3h_Sfc_RLatLon0.09_PT076H.grib2 2026-04-18 15:01 1.2M
20260418T12Z_MSC_RDPS_Pressure_MSL_RLatLon0.09_PT076H.grib2 2026-04-18 15:01 303K
20260418T12Z_MSC_RDPS_Pressure_PVU-1.5_RLatLon0.09_PT076H.grib2 2026-04-18 15:01 2.5M
20260418T12Z_MSC_RDPS_Pressure_PVU-1_RLatLon0.09_PT076H.grib2 2026-04-18 15:01 2.4M
20260418T12Z_MSC_RDPS_Pressure_PVU-2_RLatLon0.09_PT076H.grib2 2026-04-18 15:01 2.4M
20260418T12Z_MSC_RDPS_Pressure_Sfc_RLatLon0.09_PT076H.grib2 2026-04-18 15:01 504K
20260418T12Z_MSC_RDPS_RadiativeTemp_Sfc_RLatLon0.09_PT076H.grib2 2026-04-18 15:01 328K
20260418T12Z_MSC_RDPS_Rain-Accum1h_Sfc_RLatLon0.09_PT076H.grib2 2026-04-18 15:01 624K
20260418T12Z_MSC_RDPS_Rain-Accum_Sfc_RLatLon0.09_PT076H.grib2 2026-04-18 15:01 1.7M
20260418T12Z_MSC_RDPS_RelativeHumidity_AGL-2m_RLatLon0.09_PT076H.grib2 2026-04-18 15:01 1.0M
20260418T12Z_MSC_RDPS_RelativeHumidity_IsbL-0010_RLatLon0.09_PT076H.grib2 2026-04-18 15:01 627K
20260418T12Z_MSC_RDPS_RelativeHumidity_IsbL-0020_RLatLon0.09_PT076H.grib2 2026-04-18 15:01 571K
20260418T12Z_MSC_RDPS_RelativeHumidity_IsbL-0030_RLatLon0.09_PT076H.grib2 2026-04-18 15:01 548K
20260418T12Z_MSC_RDPS_RelativeHumidity_IsbL-0050_RLatLon0.09_PT076H.grib2 2026-04-18 15:01 390K
20260418T12Z_MSC_RDPS_RelativeHumidity_IsbL-0100_RLatLon0.09_PT076H.grib2 2026-04-18 15:01 272K
20260418T12Z_MSC_RDPS_RelativeHumidity_IsbL-0150_RLatLon0.09_PT076H.grib2 2026-04-18 15:01 381K
20260418T12Z_MSC_RDPS_RelativeHumidity_IsbL-0175_RLatLon0.09_PT076H.grib2 2026-04-18 15:01 466K
20260418T12Z_MSC_RDPS_RelativeHumidity_IsbL-0200_RLatLon0.09_PT076H.grib2 2026-04-18 15:01 554K
20260418T12Z_MSC_RDPS_RelativeHumidity_IsbL-0225_RLatLon0.09_PT076H.grib2 2026-04-18 15:01 629K
20260418T12Z_MSC_RDPS_RelativeHumidity_IsbL-0250_RLatLon0.09_PT076H.grib2 2026-04-18 15:01 687K
20260418T12Z_MSC_RDPS_RelativeHumidity_IsbL-0275_RLatLon0.09_PT076H.grib2 2026-04-18 15:01 707K
20260418T12Z_MSC_RDPS_RelativeHumidity_IsbL-0300_RLatLon0.09_PT076H.grib2 2026-04-18 15:01 740K
20260418T12Z_MSC_RDPS_RelativeHumidity_IsbL-0350_RLatLon0.09_PT076H.grib2 2026-04-18 15:01 759K
20260418T12Z_MSC_RDPS_RelativeHumidity_IsbL-0400_RLatLon0.09_PT076H.grib2 2026-04-18 15:01 782K
20260418T12Z_MSC_RDPS_RelativeHumidity_IsbL-0450_RLatLon0.09_PT076H.grib2 2026-04-18 15:01 798K
20260418T12Z_MSC_RDPS_RelativeHumidity_IsbL-0500_RLatLon0.09_PT076H.grib2 2026-04-18 15:01 824K
20260418T12Z_MSC_RDPS_RelativeHumidity_IsbL-0550_RLatLon0.09_PT076H.grib2 2026-04-18 15:01 849K
20260418T12Z_MSC_RDPS_RelativeHumidity_IsbL-0600_RLatLon0.09_PT076H.grib2 2026-04-18 15:01 866K
20260418T12Z_MSC_RDPS_RelativeHumidity_IsbL-0650_RLatLon0.09_PT076H.grib2 2026-04-18 15:01 858K
20260418T12Z_MSC_RDPS_RelativeHumidity_IsbL-0700_RLatLon0.09_PT076H.grib2 2026-04-18 15:01 872K
20260418T12Z_MSC_RDPS_RelativeHumidity_IsbL-0750_RLatLon0.09_PT076H.grib2 2026-04-18 15:01 914K
20260418T12Z_MSC_RDPS_RelativeHumidity_IsbL-0800_RLatLon0.09_PT076H.grib2 2026-04-18 15:01 1.0M
20260418T12Z_MSC_RDPS_RelativeHumidity_IsbL-0850_RLatLon0.09_PT076H.grib2 2026-04-18 15:01 1.0M
20260418T12Z_MSC_RDPS_RelativeHumidity_IsbL-0875_RLatLon0.09_PT076H.grib2 2026-04-18 15:01 1.1M
20260418T12Z_MSC_RDPS_RelativeHumidity_IsbL-0900_RLatLon0.09_PT076H.grib2 2026-04-18 15:01 1.1M
20260418T12Z_MSC_RDPS_RelativeHumidity_IsbL-0925_RLatLon0.09_PT076H.grib2 2026-04-18 15:01 1.1M
20260418T12Z_MSC_RDPS_RelativeHumidity_IsbL-0950_RLatLon0.09_PT076H.grib2 2026-04-18 15:01 1.1M
20260418T12Z_MSC_RDPS_RelativeHumidity_IsbL-0970_RLatLon0.09_PT076H.grib2 2026-04-18 15:01 1.1M
20260418T12Z_MSC_RDPS_RelativeHumidity_IsbL-0985_RLatLon0.09_PT076H.grib2 2026-04-18 15:01 1.0M
20260418T12Z_MSC_RDPS_RelativeHumidity_IsbL-1000_RLatLon0.09_PT076H.grib2 2026-04-18 15:01 1.0M
20260418T12Z_MSC_RDPS_RelativeHumidity_IsbL-1015_RLatLon0.09_PT076H.grib2 2026-04-18 15:01 1.0M
20260418T12Z_MSC_RDPS_Runoff-Accum_Sfc_RLatLon0.09_PT076H.grib2 2026-04-18 15:01 72K
20260418T12Z_MSC_RDPS_SWEATIndex_Sfc_RLatLon0.09_PT076H.grib2 2026-04-18 15:01 2.4M
20260418T12Z_MSC_RDPS_SeeingIndex_EAtm_RLatLon0.09_PT076H.grib2 2026-04-18 15:01 1.0M
20260418T12Z_MSC_RDPS_SensibleHeatNetFlux_Sfc_RLatLon0.09_PT076H.grib2 2026-04-18 15:01 372K
20260418T12Z_MSC_RDPS_ShowalterIndex_IsbL-0500_RLatLon0.09_PT076H.grib2 2026-04-18 15:01 2.6M
20260418T12Z_MSC_RDPS_SkyTransparencyIndex_EAtm_RLatLon0.09_PT076H.grib2 2026-04-18 15:01 716K
20260418T12Z_MSC_RDPS_Snow-Accum1h_Sfc_RLatLon0.09_PT076H.grib2 2026-04-18 15:01 247K
20260418T12Z_MSC_RDPS_Snow-Accum_Sfc_RLatLon0.09_PT076H.grib2 2026-04-18 15:01 766K
20260418T12Z_MSC_RDPS_SnowDensity_Sfc_RLatLon0.09_PT076H.grib2 2026-04-18 15:01 179K
20260418T12Z_MSC_RDPS_SnowDepth_Sfc_RLatLon0.09_PT076H.grib2 2026-04-18 15:01 713K
20260418T12Z_MSC_RDPS_SoilTemp_DBS-0to10cm_RLatLon0.09_PT076H.grib2 2026-04-18 15:01 241K
20260418T12Z_MSC_RDPS_SoilTemp_Sfc_RLatLon0.09_PT076H.grib2 2026-04-18 15:01 294K
20260418T12Z_MSC_RDPS_SoilVolumetricIceContent_Sfc_RLatLon0.09_PT076H.grib2 2026-04-18 15:01 172K
20260418T12Z_MSC_RDPS_SoilVolumetricWaterContent_DBS-0to10cm_RLatLon0.09_PT076H.grib2 2026-04-18 15:01 251K
20260418T12Z_MSC_RDPS_SoilVolumetricWaterContent_DBS-0to1cm_RLatLon0.09_PT076H.grib2 2026-04-18 15:01 341K
20260418T12Z_MSC_RDPS_SpecificHumidity_AGL-120m_RLatLon0.09_PT076H.grib2 2026-04-18 15:01 490K
20260418T12Z_MSC_RDPS_SpecificHumidity_AGL-2m_RLatLon0.09_PT076H.grib2 2026-04-18 15:01 658K
20260418T12Z_MSC_RDPS_SpecificHumidity_AGL-40m_RLatLon0.09_PT076H.grib2 2026-04-18 15:01 496K
20260418T12Z_MSC_RDPS_SpecificHumidity_AGL-80m_RLatLon0.09_PT076H.grib2 2026-04-18 15:01 493K
20260418T12Z_MSC_RDPS_SpecificHumidity_IsbL-0001_RLatLon0.09_PT076H.grib2 2026-04-18 15:01 328K
20260418T12Z_MSC_RDPS_SpecificHumidity_IsbL-0005_RLatLon0.09_PT076H.grib2 2026-04-18 15:01 395K
20260418T12Z_MSC_RDPS_SpecificHumidity_IsbL-0010_RLatLon0.09_PT076H.grib2 2026-04-18 15:01 365K
20260418T12Z_MSC_RDPS_SpecificHumidity_IsbL-0020_RLatLon0.09_PT076H.grib2 2026-04-18 15:01 363K
20260418T12Z_MSC_RDPS_SpecificHumidity_IsbL-0030_RLatLon0.09_PT076H.grib2 2026-04-18 15:01 425K
20260418T12Z_MSC_RDPS_SpecificHumidity_IsbL-0050_RLatLon0.09_PT076H.grib2 2026-04-18 15:01 460K
20260418T12Z_MSC_RDPS_SpecificHumidity_IsbL-0100_RLatLon0.09_PT076H.grib2 2026-04-18 15:01 412K
20260418T12Z_MSC_RDPS_SpecificHumidity_IsbL-0150_RLatLon0.09_PT076H.grib2 2026-04-18 15:01 439K
20260418T12Z_MSC_RDPS_SpecificHumidity_IsbL-0175_RLatLon0.09_PT076H.grib2 2026-04-18 15:01 524K
20260418T12Z_MSC_RDPS_SpecificHumidity_IsbL-0200_RLatLon0.09_PT076H.grib2 2026-04-18 15:01 543K
20260418T12Z_MSC_RDPS_SpecificHumidity_IsbL-0225_RLatLon0.09_PT076H.grib2 2026-04-18 15:01 442K
20260418T12Z_MSC_RDPS_SpecificHumidity_IsbL-0250_RLatLon0.09_PT076H.grib2 2026-04-18 15:01 547K
20260418T12Z_MSC_RDPS_SpecificHumidity_IsbL-0275_RLatLon0.09_PT076H.grib2 2026-04-18 15:01 463K
20260418T12Z_MSC_RDPS_SpecificHumidity_IsbL-0300_RLatLon0.09_PT076H.grib2 2026-04-18 15:01 531K
20260418T12Z_MSC_RDPS_SpecificHumidity_IsbL-0350_RLatLon0.09_PT076H.grib2 2026-04-18 15:01 525K
20260418T12Z_MSC_RDPS_SpecificHumidity_IsbL-0400_RLatLon0.09_PT076H.grib2 2026-04-18 15:01 511K
20260418T12Z_MSC_RDPS_SpecificHumidity_IsbL-0450_RLatLon0.09_PT076H.grib2 2026-04-18 15:01 570K
20260418T12Z_MSC_RDPS_SpecificHumidity_IsbL-0500_RLatLon0.09_PT076H.grib2 2026-04-18 15:01 513K
20260418T12Z_MSC_RDPS_SpecificHumidity_IsbL-0550_RLatLon0.09_PT076H.grib2 2026-04-18 15:01 576K
20260418T12Z_MSC_RDPS_SpecificHumidity_IsbL-0600_RLatLon0.09_PT076H.grib2 2026-04-18 15:01 643K
20260418T12Z_MSC_RDPS_SpecificHumidity_IsbL-0650_RLatLon0.09_PT076H.grib2 2026-04-18 15:01 551K
20260418T12Z_MSC_RDPS_SpecificHumidity_IsbL-0700_RLatLon0.09_PT076H.grib2 2026-04-18 15:01 586K
20260418T12Z_MSC_RDPS_SpecificHumidity_IsbL-0750_RLatLon0.09_PT076H.grib2 2026-04-18 15:01 638K
20260418T12Z_MSC_RDPS_SpecificHumidity_IsbL-0800_RLatLon0.09_PT076H.grib2 2026-04-18 15:01 717K
20260418T12Z_MSC_RDPS_SpecificHumidity_IsbL-0850_RLatLon0.09_PT076H.grib2 2026-04-18 15:01 797K
20260418T12Z_MSC_RDPS_SpecificHumidity_IsbL-0875_RLatLon0.09_PT076H.grib2 2026-04-18 15:01 810K
20260418T12Z_MSC_RDPS_SpecificHumidity_IsbL-0900_RLatLon0.09_PT076H.grib2 2026-04-18 15:01 818K
20260418T12Z_MSC_RDPS_SpecificHumidity_IsbL-0925_RLatLon0.09_PT076H.grib2 2026-04-18 15:01 684K
20260418T12Z_MSC_RDPS_SpecificHumidity_IsbL-0950_RLatLon0.09_PT076H.grib2 2026-04-18 15:01 688K
20260418T12Z_MSC_RDPS_SpecificHumidity_IsbL-0970_RLatLon0.09_PT076H.grib2 2026-04-18 15:01 687K
20260418T12Z_MSC_RDPS_SpecificHumidity_IsbL-0985_RLatLon0.09_PT076H.grib2 2026-04-18 15:01 683K
20260418T12Z_MSC_RDPS_SpecificHumidity_IsbL-1000_RLatLon0.09_PT076H.grib2 2026-04-18 15:01 677K
20260418T12Z_MSC_RDPS_SpecificHumidity_IsbL-1015_RLatLon0.09_PT076H.grib2 2026-04-18 15:01 668K
20260418T12Z_MSC_RDPS_SpecificHumidity_Sfc_RLatLon0.09_PT076H.grib2 2026-04-18 15:01 328K
20260418T12Z_MSC_RDPS_StormRelativeHelicity_EtaL-10000_RLatLon0.09_PT076H.grib2 2026-04-18 15:01 1.1M
20260418T12Z_MSC_RDPS_StormSeverityIndex_EtaL-10000_RLatLon0.09_PT076H.grib2 2026-04-18 15:01 1.2M
20260418T12Z_MSC_RDPS_Thickness_IsbL-0850to0700_RLatLon0.09_PT076H.grib2 2026-04-18 15:01 181K
20260418T12Z_MSC_RDPS_Thickness_IsbL-1000to0500_RLatLon0.09_PT076H.grib2 2026-04-18 15:01 206K
20260418T12Z_MSC_RDPS_Thickness_IsbL-1000to0850_RLatLon0.09_PT076H.grib2 2026-04-18 15:01 191K
20260418T12Z_MSC_RDPS_TotalCloudCover_Sfc_RLatLon0.09_PT076H.grib2 2026-04-18 15:01 655K
20260418T12Z_MSC_RDPS_TotalTotalsIndex_Sfc_RLatLon0.09_PT076H.grib2 2026-04-18 15:01 2.5M
20260418T12Z_MSC_RDPS_UVIndex-ClearSky_Sfc_RLatLon0.09_PT076H.grib2 2026-04-18 15:01 200K
20260418T12Z_MSC_RDPS_UVIndex_Sfc_RLatLon0.09_PT076H.grib2 2026-04-18 15:01 464K
20260418T12Z_MSC_RDPS_UpwardLongwaveRadiationFlux_NTAtm_RLatLon0.09_PT076H.grib2 2026-04-18 15:01 488K
20260418T12Z_MSC_RDPS_UpwardShortwaveRadiationFlux_NTAtm_RLatLon0.09_PT076H.grib2 2026-04-18 15:01 510K
20260418T12Z_MSC_RDPS_VerticalVelocity_IsbL-0250_RLatLon0.09_PT076H.grib2 2026-04-18 15:01 458K
20260418T12Z_MSC_RDPS_VerticalVelocity_IsbL-0500_RLatLon0.09_PT076H.grib2 2026-04-18 15:01 558K
20260418T12Z_MSC_RDPS_VerticalVelocity_IsbL-0700_RLatLon0.09_PT076H.grib2 2026-04-18 15:01 447K
20260418T12Z_MSC_RDPS_VerticalVelocity_IsbL-0850_RLatLon0.09_PT076H.grib2 2026-04-18 15:01 701K
20260418T12Z_MSC_RDPS_VerticalWindShear_EtaL-6500_RLatLon0.09_PT076H.grib2 2026-04-18 15:01 1.2M
20260418T12Z_MSC_RDPS_WindChill_Sfc_RLatLon0.09_PT076H.grib2 2026-04-18 15:01 1.3M
20260418T12Z_MSC_RDPS_WindDir_AGL-10m_RLatLon0.09_PT076H.grib2 2026-04-18 15:01 1.0M
20260418T12Z_MSC_RDPS_WindDir_AGL-120m_RLatLon0.09_PT076H.grib2 2026-04-18 15:01 621K
20260418T12Z_MSC_RDPS_WindDir_AGL-40m_RLatLon0.09_PT076H.grib2 2026-04-18 15:01 642K
20260418T12Z_MSC_RDPS_WindDir_AGL-80m_RLatLon0.09_PT076H.grib2 2026-04-18 15:01 629K
20260418T12Z_MSC_RDPS_WindDir_IsbL-0001_RLatLon0.09_PT076H.grib2 2026-04-18 15:01 265K
20260418T12Z_MSC_RDPS_WindDir_IsbL-0005_RLatLon0.09_PT076H.grib2 2026-04-18 15:01 355K
20260418T12Z_MSC_RDPS_WindDir_IsbL-0010_RLatLon0.09_PT076H.grib2 2026-04-18 15:01 375K
20260418T12Z_MSC_RDPS_WindDir_IsbL-0020_RLatLon0.09_PT076H.grib2 2026-04-18 15:01 393K
20260418T12Z_MSC_RDPS_WindDir_IsbL-0030_RLatLon0.09_PT076H.grib2 2026-04-18 15:01 410K
20260418T12Z_MSC_RDPS_WindDir_IsbL-0050_RLatLon0.09_PT076H.grib2 2026-04-18 15:01 437K
20260418T12Z_MSC_RDPS_WindDir_IsbL-0100_RLatLon0.09_PT076H.grib2 2026-04-18 15:01 422K
20260418T12Z_MSC_RDPS_WindDir_IsbL-0150_RLatLon0.09_PT076H.grib2 2026-04-18 15:01 412K
20260418T12Z_MSC_RDPS_WindDir_IsbL-0175_RLatLon0.09_PT076H.grib2 2026-04-18 15:01 432K
20260418T12Z_MSC_RDPS_WindDir_IsbL-0200_RLatLon0.09_PT076H.grib2 2026-04-18 15:01 448K
20260418T12Z_MSC_RDPS_WindDir_IsbL-0225_RLatLon0.09_PT076H.grib2 2026-04-18 15:01 450K
20260418T12Z_MSC_RDPS_WindDir_IsbL-0250_RLatLon0.09_PT076H.grib2 2026-04-18 15:01 446K
20260418T12Z_MSC_RDPS_WindDir_IsbL-0275_RLatLon0.09_PT076H.grib2 2026-04-18 15:01 458K
20260418T12Z_MSC_RDPS_WindDir_IsbL-0300_RLatLon0.09_PT076H.grib2 2026-04-18 15:01 452K
20260418T12Z_MSC_RDPS_WindDir_IsbL-0350_RLatLon0.09_PT076H.grib2 2026-04-18 15:01 469K
20260418T12Z_MSC_RDPS_WindDir_IsbL-0400_RLatLon0.09_PT076H.grib2 2026-04-18 15:01 486K
20260418T12Z_MSC_RDPS_WindDir_IsbL-0450_RLatLon0.09_PT076H.grib2 2026-04-18 15:01 506K
20260418T12Z_MSC_RDPS_WindDir_IsbL-0500_RLatLon0.09_PT076H.grib2 2026-04-18 15:01 526K
20260418T12Z_MSC_RDPS_WindDir_IsbL-0550_RLatLon0.09_PT076H.grib2 2026-04-18 15:01 547K
20260418T12Z_MSC_RDPS_WindDir_IsbL-0600_RLatLon0.09_PT076H.grib2 2026-04-18 15:01 573K
20260418T12Z_MSC_RDPS_WindDir_IsbL-0650_RLatLon0.09_PT076H.grib2 2026-04-18 15:01 607K
20260418T12Z_MSC_RDPS_WindDir_IsbL-0700_RLatLon0.09_PT076H.grib2 2026-04-18 15:01 647K
20260418T12Z_MSC_RDPS_WindDir_IsbL-0750_RLatLon0.09_PT076H.grib2 2026-04-18 15:01 700K
20260418T12Z_MSC_RDPS_WindDir_IsbL-0800_RLatLon0.09_PT076H.grib2 2026-04-18 15:01 774K
20260418T12Z_MSC_RDPS_WindDir_IsbL-0850_RLatLon0.09_PT076H.grib2 2026-04-18 15:01 857K
20260418T12Z_MSC_RDPS_WindDir_IsbL-0875_RLatLon0.09_PT076H.grib2 2026-04-18 15:01 887K
20260418T12Z_MSC_RDPS_WindDir_IsbL-0900_RLatLon0.09_PT076H.grib2 2026-04-18 15:01 903K
20260418T12Z_MSC_RDPS_WindDir_IsbL-0925_RLatLon0.09_PT076H.grib2 2026-04-18 15:01 910K
20260418T12Z_MSC_RDPS_WindDir_IsbL-0950_RLatLon0.09_PT076H.grib2 2026-04-18 15:01 911K
20260418T12Z_MSC_RDPS_WindDir_IsbL-0970_RLatLon0.09_PT076H.grib2 2026-04-18 15:01 922K
20260418T12Z_MSC_RDPS_WindDir_IsbL-0985_RLatLon0.09_PT076H.grib2 2026-04-18 15:01 935K
20260418T12Z_MSC_RDPS_WindDir_IsbL-1000_RLatLon0.09_PT076H.grib2 2026-04-18 15:01 950K
20260418T12Z_MSC_RDPS_WindDir_IsbL-1015_RLatLon0.09_PT076H.grib2 2026-04-18 15:01 966K
20260418T12Z_MSC_RDPS_WindGust-Max_AGL-10m_RLatLon0.09_PT076H.grib2 2026-04-18 15:01 958K
20260418T12Z_MSC_RDPS_WindGust-Min_AGL-10m_RLatLon0.09_PT076H.grib2 2026-04-18 15:01 1.0M
20260418T12Z_MSC_RDPS_WindGust_AGL-10m_RLatLon0.09_PT076H.grib2 2026-04-18 15:01 1.0M
20260418T12Z_MSC_RDPS_WindSpeed_AGL-10m_RLatLon0.09_PT076H.grib2 2026-04-18 15:01 854K
20260418T12Z_MSC_RDPS_WindSpeed_AGL-120m_RLatLon0.09_PT076H.grib2 2026-04-18 15:01 547K
20260418T12Z_MSC_RDPS_WindSpeed_AGL-40m_RLatLon0.09_PT076H.grib2 2026-04-18 15:01 550K
20260418T12Z_MSC_RDPS_WindSpeed_AGL-80m_RLatLon0.09_PT076H.grib2 2026-04-18 15:01 547K
20260418T12Z_MSC_RDPS_WindSpeed_IsbL-0001_RLatLon0.09_PT076H.grib2 2026-04-18 15:01 246K
20260418T12Z_MSC_RDPS_WindSpeed_IsbL-0005_RLatLon0.09_PT076H.grib2 2026-04-18 15:01 297K
20260418T12Z_MSC_RDPS_WindSpeed_IsbL-0010_RLatLon0.09_PT076H.grib2 2026-04-18 15:01 314K
20260418T12Z_MSC_RDPS_WindSpeed_IsbL-0020_RLatLon0.09_PT076H.grib2 2026-04-18 15:01 333K
20260418T12Z_MSC_RDPS_WindSpeed_IsbL-0030_RLatLon0.09_PT076H.grib2 2026-04-18 15:01 333K
20260418T12Z_MSC_RDPS_WindSpeed_IsbL-0050_RLatLon0.09_PT076H.grib2 2026-04-18 15:01 480K
20260418T12Z_MSC_RDPS_WindSpeed_IsbL-0100_RLatLon0.09_PT076H.grib2 2026-04-18 15:01 493K
20260418T12Z_MSC_RDPS_WindSpeed_IsbL-0150_RLatLon0.09_PT076H.grib2 2026-04-18 15:01 381K
20260418T12Z_MSC_RDPS_WindSpeed_IsbL-0175_RLatLon0.09_PT076H.grib2 2026-04-18 15:01 404K
20260418T12Z_MSC_RDPS_WindSpeed_IsbL-0200_RLatLon0.09_PT076H.grib2 2026-04-18 15:01 441K
20260418T12Z_MSC_RDPS_WindSpeed_IsbL-0225_RLatLon0.09_PT076H.grib2 2026-04-18 15:01 448K
20260418T12Z_MSC_RDPS_WindSpeed_IsbL-0250_RLatLon0.09_PT076H.grib2 2026-04-18 15:01 448K
20260418T12Z_MSC_RDPS_WindSpeed_IsbL-0275_RLatLon0.09_PT076H.grib2 2026-04-18 15:01 461K
20260418T12Z_MSC_RDPS_WindSpeed_IsbL-0300_RLatLon0.09_PT076H.grib2 2026-04-18 15:01 455K
20260418T12Z_MSC_RDPS_WindSpeed_IsbL-0350_RLatLon0.09_PT076H.grib2 2026-04-18 15:01 465K
20260418T12Z_MSC_RDPS_WindSpeed_IsbL-0400_RLatLon0.09_PT076H.grib2 2026-04-18 15:01 471K
20260418T12Z_MSC_RDPS_WindSpeed_IsbL-0450_RLatLon0.09_PT076H.grib2 2026-04-18 15:01 458K
20260418T12Z_MSC_RDPS_WindSpeed_IsbL-0500_RLatLon0.09_PT076H.grib2 2026-04-18 15:01 463K
20260418T12Z_MSC_RDPS_WindSpeed_IsbL-0550_RLatLon0.09_PT076H.grib2 2026-04-18 15:01 585K
20260418T12Z_MSC_RDPS_WindSpeed_IsbL-0600_RLatLon0.09_PT076H.grib2 2026-04-18 15:01 595K
20260418T12Z_MSC_RDPS_WindSpeed_IsbL-0650_RLatLon0.09_PT076H.grib2 2026-04-18 15:01 613K
20260418T12Z_MSC_RDPS_WindSpeed_IsbL-0700_RLatLon0.09_PT076H.grib2 2026-04-18 15:01 635K
20260418T12Z_MSC_RDPS_WindSpeed_IsbL-0750_RLatLon0.09_PT076H.grib2 2026-04-18 15:01 665K
20260418T12Z_MSC_RDPS_WindSpeed_IsbL-0800_RLatLon0.09_PT076H.grib2 2026-04-18 15:01 717K
20260418T12Z_MSC_RDPS_WindSpeed_IsbL-0850_RLatLon0.09_PT076H.grib2 2026-04-18 15:01 776K
20260418T12Z_MSC_RDPS_WindSpeed_IsbL-0875_RLatLon0.09_PT076H.grib2 2026-04-18 15:01 797K
20260418T12Z_MSC_RDPS_WindSpeed_IsbL-0900_RLatLon0.09_PT076H.grib2 2026-04-18 15:01 810K
20260418T12Z_MSC_RDPS_WindSpeed_IsbL-0925_RLatLon0.09_PT076H.grib2 2026-04-18 15:01 866K
20260418T12Z_MSC_RDPS_WindSpeed_IsbL-0950_RLatLon0.09_PT076H.grib2 2026-04-18 15:01 867K
20260418T12Z_MSC_RDPS_WindSpeed_IsbL-0970_RLatLon0.09_PT076H.grib2 2026-04-18 15:01 869K
20260418T12Z_MSC_RDPS_WindSpeed_IsbL-0985_RLatLon0.09_PT076H.grib2 2026-04-18 15:01 865K
20260418T12Z_MSC_RDPS_WindSpeed_IsbL-1000_RLatLon0.09_PT076H.grib2 2026-04-18 15:01 863K
20260418T12Z_MSC_RDPS_WindSpeed_IsbL-1015_RLatLon0.09_PT076H.grib2 2026-04-18 15:01 855K
20260418T12Z_MSC_RDPS_WindU_AGL-10m_RLatLon0.09_PT076H.grib2 2026-04-18 15:01 439K
20260418T12Z_MSC_RDPS_WindU_AGL-120m_RLatLon0.09_PT076H.grib2 2026-04-18 15:01 424K
20260418T12Z_MSC_RDPS_WindU_AGL-40m_RLatLon0.09_PT076H.grib2 2026-04-18 15:01 544K
20260418T12Z_MSC_RDPS_WindU_AGL-80m_RLatLon0.09_PT076H.grib2 2026-04-18 15:01 424K
20260418T12Z_MSC_RDPS_WindU_IsbL-0001_RLatLon0.09_PT076H.grib2 2026-04-18 15:01 289K
20260418T12Z_MSC_RDPS_WindU_IsbL-0005_RLatLon0.09_PT076H.grib2 2026-04-18 15:01 333K
20260418T12Z_MSC_RDPS_WindU_IsbL-0010_RLatLon0.09_PT076H.grib2 2026-04-18 15:01 348K
20260418T12Z_MSC_RDPS_WindU_IsbL-0020_RLatLon0.09_PT076H.grib2 2026-04-18 15:01 365K
20260418T12Z_MSC_RDPS_WindU_IsbL-0030_RLatLon0.09_PT076H.grib2 2026-04-18 15:01 332K
20260418T12Z_MSC_RDPS_WindU_IsbL-0050_RLatLon0.09_PT076H.grib2 2026-04-18 15:01 366K
20260418T12Z_MSC_RDPS_WindU_IsbL-0100_RLatLon0.09_PT076H.grib2 2026-04-18 15:01 449K
20260418T12Z_MSC_RDPS_WindU_IsbL-0150_RLatLon0.09_PT076H.grib2 2026-04-18 15:01 399K
20260418T12Z_MSC_RDPS_WindU_IsbL-0175_RLatLon0.09_PT076H.grib2 2026-04-18 15:01 420K
20260418T12Z_MSC_RDPS_WindU_IsbL-0200_RLatLon0.09_PT076H.grib2 2026-04-18 15:01 436K
20260418T12Z_MSC_RDPS_WindU_IsbL-0225_RLatLon0.09_PT076H.grib2 2026-04-18 15:01 440K
20260418T12Z_MSC_RDPS_WindU_IsbL-0250_RLatLon0.09_PT076H.grib2 2026-04-18 15:01 439K
20260418T12Z_MSC_RDPS_WindU_IsbL-0275_RLatLon0.09_PT076H.grib2 2026-04-18 15:01 350K
20260418T12Z_MSC_RDPS_WindU_IsbL-0300_RLatLon0.09_PT076H.grib2 2026-04-18 15:01 343K
20260418T12Z_MSC_RDPS_WindU_IsbL-0350_RLatLon0.09_PT076H.grib2 2026-04-18 15:01 352K
20260418T12Z_MSC_RDPS_WindU_IsbL-0400_RLatLon0.09_PT076H.grib2 2026-04-18 15:01 357K
20260418T12Z_MSC_RDPS_WindU_IsbL-0450_RLatLon0.09_PT076H.grib2 2026-04-18 15:01 462K
20260418T12Z_MSC_RDPS_WindU_IsbL-0500_RLatLon0.09_PT076H.grib2 2026-04-18 15:01 467K
20260418T12Z_MSC_RDPS_WindU_IsbL-0550_RLatLon0.09_PT076H.grib2 2026-04-18 15:01 471K
20260418T12Z_MSC_RDPS_WindU_IsbL-0600_RLatLon0.09_PT076H.grib2 2026-04-18 15:01 479K
20260418T12Z_MSC_RDPS_WindU_IsbL-0650_RLatLon0.09_PT076H.grib2 2026-04-18 15:01 495K
20260418T12Z_MSC_RDPS_WindU_IsbL-0700_RLatLon0.09_PT076H.grib2 2026-04-18 15:01 514K
20260418T12Z_MSC_RDPS_WindU_IsbL-0750_RLatLon0.09_PT076H.grib2 2026-04-18 15:01 529K
20260418T12Z_MSC_RDPS_WindU_IsbL-0800_RLatLon0.09_PT076H.grib2 2026-04-18 15:01 575K
20260418T12Z_MSC_RDPS_WindU_IsbL-0850_RLatLon0.09_PT076H.grib2 2026-04-18 15:01 637K
20260418T12Z_MSC_RDPS_WindU_IsbL-0875_RLatLon0.09_PT076H.grib2 2026-04-18 15:01 655K
20260418T12Z_MSC_RDPS_WindU_IsbL-0900_RLatLon0.09_PT076H.grib2 2026-04-18 15:01 664K
20260418T12Z_MSC_RDPS_WindU_IsbL-0925_RLatLon0.09_PT076H.grib2 2026-04-18 15:01 668K
20260418T12Z_MSC_RDPS_WindU_IsbL-0950_RLatLon0.09_PT076H.grib2 2026-04-18 15:01 660K
20260418T12Z_MSC_RDPS_WindU_IsbL-0970_RLatLon0.09_PT076H.grib2 2026-04-18 15:01 659K
20260418T12Z_MSC_RDPS_WindU_IsbL-0985_RLatLon0.09_PT076H.grib2 2026-04-18 15:01 660K
20260418T12Z_MSC_RDPS_WindU_IsbL-1000_RLatLon0.09_PT076H.grib2 2026-04-18 15:01 801K
20260418T12Z_MSC_RDPS_WindU_IsbL-1015_RLatLon0.09_PT076H.grib2 2026-04-18 15:01 795K
20260418T12Z_MSC_RDPS_WindV_AGL-10m_RLatLon0.09_PT076H.grib2 2026-04-18 15:01 440K
20260418T12Z_MSC_RDPS_WindV_AGL-120m_RLatLon0.09_PT076H.grib2 2026-04-18 15:01 424K
20260418T12Z_MSC_RDPS_WindV_AGL-40m_RLatLon0.09_PT076H.grib2 2026-04-18 15:01 545K
20260418T12Z_MSC_RDPS_WindV_AGL-80m_RLatLon0.09_PT076H.grib2 2026-04-18 15:01 425K
20260418T12Z_MSC_RDPS_WindV_IsbL-0001_RLatLon0.09_PT076H.grib2 2026-04-18 15:01 288K
20260418T12Z_MSC_RDPS_WindV_IsbL-0005_RLatLon0.09_PT076H.grib2 2026-04-18 15:01 330K
20260418T12Z_MSC_RDPS_WindV_IsbL-0010_RLatLon0.09_PT076H.grib2 2026-04-18 15:01 306K
20260418T12Z_MSC_RDPS_WindV_IsbL-0020_RLatLon0.09_PT076H.grib2 2026-04-18 15:01 366K
20260418T12Z_MSC_RDPS_WindV_IsbL-0030_RLatLon0.09_PT076H.grib2 2026-04-18 15:01 328K
20260418T12Z_MSC_RDPS_WindV_IsbL-0050_RLatLon0.09_PT076H.grib2 2026-04-18 15:01 397K
20260418T12Z_MSC_RDPS_WindV_IsbL-0100_RLatLon0.09_PT076H.grib2 2026-04-18 15:01 342K
20260418T12Z_MSC_RDPS_WindV_IsbL-0150_RLatLon0.09_PT076H.grib2 2026-04-18 15:01 394K
20260418T12Z_MSC_RDPS_WindV_IsbL-0175_RLatLon0.09_PT076H.grib2 2026-04-18 15:01 417K
20260418T12Z_MSC_RDPS_WindV_IsbL-0200_RLatLon0.09_PT076H.grib2 2026-04-18 15:01 335K
20260418T12Z_MSC_RDPS_WindV_IsbL-0225_RLatLon0.09_PT076H.grib2 2026-04-18 15:01 338K
20260418T12Z_MSC_RDPS_WindV_IsbL-0250_RLatLon0.09_PT076H.grib2 2026-04-18 15:01 339K
20260418T12Z_MSC_RDPS_WindV_IsbL-0275_RLatLon0.09_PT076H.grib2 2026-04-18 15:01 374K
20260418T12Z_MSC_RDPS_WindV_IsbL-0300_RLatLon0.09_PT076H.grib2 2026-04-18 15:01 369K
20260418T12Z_MSC_RDPS_WindV_IsbL-0350_RLatLon0.09_PT076H.grib2 2026-04-18 15:01 375K
20260418T12Z_MSC_RDPS_WindV_IsbL-0400_RLatLon0.09_PT076H.grib2 2026-04-18 15:01 356K
20260418T12Z_MSC_RDPS_WindV_IsbL-0450_RLatLon0.09_PT076H.grib2 2026-04-18 15:01 360K
20260418T12Z_MSC_RDPS_WindV_IsbL-0500_RLatLon0.09_PT076H.grib2 2026-04-18 15:01 467K
20260418T12Z_MSC_RDPS_WindV_IsbL-0550_RLatLon0.09_PT076H.grib2 2026-04-18 15:01 471K
20260418T12Z_MSC_RDPS_WindV_IsbL-0600_RLatLon0.09_PT076H.grib2 2026-04-18 15:01 479K
20260418T12Z_MSC_RDPS_WindV_IsbL-0650_RLatLon0.09_PT076H.grib2 2026-04-18 15:01 494K
20260418T12Z_MSC_RDPS_WindV_IsbL-0700_RLatLon0.09_PT076H.grib2 2026-04-18 15:01 498K
20260418T12Z_MSC_RDPS_WindV_IsbL-0750_RLatLon0.09_PT076H.grib2 2026-04-18 15:01 539K
20260418T12Z_MSC_RDPS_WindV_IsbL-0800_RLatLon0.09_PT076H.grib2 2026-04-18 15:01 572K
20260418T12Z_MSC_RDPS_WindV_IsbL-0850_RLatLon0.09_PT076H.grib2 2026-04-18 15:01 628K
20260418T12Z_MSC_RDPS_WindV_IsbL-0875_RLatLon0.09_PT076H.grib2 2026-04-18 15:01 646K
20260418T12Z_MSC_RDPS_WindV_IsbL-0900_RLatLon0.09_PT076H.grib2 2026-04-18 15:01 655K
20260418T12Z_MSC_RDPS_WindV_IsbL-0925_RLatLon0.09_PT076H.grib2 2026-04-18 15:01 661K
20260418T12Z_MSC_RDPS_WindV_IsbL-0950_RLatLon0.09_PT076H.grib2 2026-04-18 15:01 658K
20260418T12Z_MSC_RDPS_WindV_IsbL-0970_RLatLon0.09_PT076H.grib2 2026-04-18 15:01 661K
20260418T12Z_MSC_RDPS_WindV_IsbL-0985_RLatLon0.09_PT076H.grib2 2026-04-18 15:01 802K
20260418T12Z_MSC_RDPS_WindV_IsbL-1000_RLatLon0.09_PT076H.grib2 2026-04-18 15:01 800K
20260418T12Z_MSC_RDPS_WindV_IsbL-1015_RLatLon0.09_PT076H.grib2 2026-04-18 15:01 795K